When you browse on this site, cookies collect data to enhance your experience and personalize the content and advertising you see.
Visit our Privacy Policy to learn more. By continuing to use the site, you agree to this use of cookies and data.
  • In Portugal
  • List of Countries
  • For 7 days
  • Water Temperature
  • Satellite Maps
  • Weather Map
  • Weather Widgets
  • user-avatar
    Login

    Hourly Weather Luanda

    Today, 18 April, Thursday

    Time Temperature Precipitation Wind Pressure Humidity
    00:00 +28°C° 0.4 mm 4 mps 753 mmHg 85%
    01:00 +28°C° 0 mm 4 mps 753 mmHg 87%
    02:00 +28°C° 0 mm 4 mps 753 mmHg 87%
    03:00 +27°C° 0 mm 4 mps 753 mmHg 87%
    04:00 +27°C° 0 mm 4 mps 752 mmHg 87%
    05:00 +27°C° 0 mm 4 mps 753 mmHg 87%
    06:00 +27°C° 0 mm 3 mps 753 mmHg 86%
    07:00 +27°C° 0 mm 3 mps 753 mmHg 86%
    08:00 +28°C° 0 mm 3 mps 753 mmHg 81%
    09:00 +30°C° 0 mm 3 mps 753 mmHg 76%
    10:00 +31°C° 0 mm 3 mps 753 mmHg 71%
    11:00 +33°C° 0 mm 3 mps 753 mmHg 65%
    12:00 +35°C° 0 mm 2 mps 752 mmHg 59%
    13:00 +37°C° 0 mm 2 mps 751 mmHg 52%
    14:00 +36°C° 0 mm 3 mps 751 mmHg 55%
    15:00 +36°C° 0 mm 4 mps 750 mmHg 58%
    16:00 +35°C° 0 mm 5 mps 750 mmHg 61%
    17:00 +33°C° 0 mm 5 mps 750 mmHg 67%
    18:00 +32°C° 0 mm 5 mps 750 mmHg 74%
    19:00 +29°C° 0 mm 5 mps 751 mmHg 80%
    20:00 +29°C° 0.1 mm 4 mps 751 mmHg 81%
    21:00 +29°C° 0.1 mm 4 mps 752 mmHg 83%
    22:00 +28°C° 0.1 mm 3 mps 752 mmHg 85%
    23:00 +28°C° 0.1 mm 3 mps 752 mmHg 86%

    Tomorrow, 19 April, Friday

    Time Temperature Precipitation Wind Pressure Humidity
    00:00 +28°C° 0.1 mm 3 mps 753 mmHg 87%
    01:00 +27°C° 0.1 mm 3 mps 753 mmHg 88%
    02:00 +27°C° 0.5 mm 2 mps 752 mmHg 89%
    03:00 +27°C° 0.5 mm 2 mps 752 mmHg 90%
    04:00 +27°C° 0.5 mm 2 mps 752 mmHg 91%
    05:00 +27°C° 0.3 mm 3 mps 752 mmHg 91%
    06:00 +27°C° 0.3 mm 3 mps 753 mmHg 91%
    07:00 +27°C° 0.3 mm 3 mps 753 mmHg 90%
    08:00 +28°C° 0 mm 3 mps 753 mmHg 85%
    09:00 +29°C° 0 mm 3 mps 753 mmHg 79%
    10:00 +31°C° 0 mm 3 mps 754 mmHg 74%
    11:00 +32°C° 0 mm 2 mps 753 mmHg 67%
    12:00 +35°C° 0 mm 2 mps 753 mmHg 61%
    13:00 +36°C° 0 mm 2 mps 752 mmHg 55%
    14:00 +36°C° 0 mm 3 mps 752 mmHg 59%
    15:00 +35°C° 0 mm 4 mps 751 mmHg 63%
    16:00 +34°C° 0 mm 5 mps 751 mmHg 67%
    17:00 +33°C° 0 mm 4 mps 751 mmHg 73%
    18:00 +30°C° 0 mm 4 mps 752 mmHg 78%
    19:00 +29°C° 0 mm 3 mps 752 mmHg 83%
    20:00 +29°C° 0.1 mm 3 mps 753 mmHg 84%
    21:00 +28°C° 0.1 mm 3 mps 753 mmHg 85%
    22:00 +28°C° 0.1 mm 3 mps 754 mmHg 86%
    23:00 +28°C° 0 mm 3 mps 753 mmHg 86%

    Day after tomorrow, 20 April, Saturday

    Time Temperature Precipitation Wind Pressure Humidity
    00:00 +28°C° 0 mm 2 mps 753 mmHg 87%
    01:00 +28°C° 0 mm 2 mps 753 mmHg 87%
    02:00 +28°C° 0 mm 2 mps 752 mmHg 88%
    03:00 +27°C° 0 mm 2 mps 752 mmHg 88%
    04:00 +27°C° 0 mm 2 mps 752 mmHg 89%
    05:00 +27°C° 0 mm 2 mps 752 mmHg 89%
    06:00 +27°C° 0 mm 2 mps 752 mmHg 89%
    07:00 +27°C° 0 mm 2 mps 753 mmHg 90%
    08:00 +29°C° 0 mm 2 mps 753 mmHg 83%
    09:00 +30°C° 0 mm 2 mps 753 mmHg 76%
    10:00 +32°C° 0 mm 1 mps 753 mmHg 70%
    11:00 +34°C° 0 mm 2 mps 753 mmHg 64%
    12:00 +36°C° 0 mm 2 mps 752 mmHg 59%
    13:00 +37°C° 0 mm 2 mps 751 mmHg 54%
    14:00 +36°C° 0 mm 4 mps 750 mmHg 60%
    15:00 +35°C° 0 mm 5 mps 750 mmHg 66%
    16:00 +34°C° 0 mm 6 mps 749 mmHg 71%
    17:00 +33°C° 0 mm 6 mps 750 mmHg 75%
    18:00 +30°C° 0 mm 5 mps 750 mmHg 79%
    19:00 +29°C° 0 mm 5 mps 751 mmHg 83%
    20:00 +29°C° 0 mm 4 mps 752 mmHg 84%
    21:00 +29°C° 0 mm 4 mps 752 mmHg 85%
    22:00 +29°C° 0 mm 3 mps 753 mmHg 86%
    23:00 +28°C° 0 mm 2 mps 753 mmHg 87%

    21 April, Sunday

    Time Temperature Precipitation Wind Pressure Humidity
    00:00 +28°C° 0 mm 2 mps 753 mmHg 88%
    01:00 +28°C° 0 mm 2 mps 752 mmHg 89%
    02:00 +28°C° 0 mm 2 mps 752 mmHg 89%
    03:00 +28°C° 0 mm 1 mps 752 mmHg 89%
    04:00 +27°C° 0 mm 1 mps 751 mmHg 90%
    05:00 +28°C° 0 mm 1 mps 752 mmHg 89%
    06:00 +28°C° 0 mm 1 mps 752 mmHg 88%
    07:00 +28°C° 0 mm 1 mps 753 mmHg 88%
    08:00 +29°C° 0 mm 1 mps 753 mmHg 81%
    09:00 +31°C° 0 mm 1 mps 753 mmHg 74%
    10:00 +30°C° 0 mm 0 mps 753 mmHg 68%
    11:00 +33°C° 0 mm 1 mps 752 mmHg 64%
    12:00 +35°C° 0 mm 2 mps 751 mmHg 61%
    13:00 +36°C° 0 mm 3 mps 750 mmHg 57%
    14:00 +35°C° 0 mm 3 mps 750 mmHg 61%
    15:00 +34°C° 0 mm 4 mps 750 mmHg 66%
    16:00 +33°C° 0 mm 5 mps 749 mmHg 70%
    17:00 +32°C° 0 mm 4 mps 750 mmHg 74%
    18:00 +30°C° 0 mm 3 mps 750 mmHg 78%
    19:00 +29°C° 0 mm 3 mps 751 mmHg 83%
    20:00 +29°C° 0 mm 2 mps 751 mmHg 83%
    21:00 +29°C° 0 mm 2 mps 752 mmHg 84%
    22:00 +28°C° 0 mm 2 mps 752 mmHg 85%
    23:00 +28°C° 0 mm 1 mps 752 mmHg 86%

    22 April, Monday

    Time Temperature Precipitation Wind Pressure Humidity
    00:00 +28°C° 0 mm 1 mps 752 mmHg 87%
    01:00 +28°C° 0 mm 1 mps 751 mmHg 88%
    02:00 +28°C° 0 mm 1 mps 751 mmHg 88%
    03:00 +27°C° 0 mm 1 mps 751 mmHg 89%
    04:00 +27°C° 0 mm 1 mps 750 mmHg 89%
    05:00 +27°C° 0 mm 2 mps 751 mmHg 89%
    06:00 +27°C° 0 mm 2 mps 751 mmHg 89%
    07:00 +27°C° 0 mm 2 mps 752 mmHg 89%
    08:00 +29°C° 0 mm 2 mps 752 mmHg 84%
    09:00 +30°C° 0 mm 2 mps 752 mmHg 79%
    10:00 +31°C° 0 mm 2 mps 752 mmHg 74%
    11:00 +32°C° 0 mm 2 mps 752 mmHg 69%
    12:00 +34°C° 0 mm 2 mps 751 mmHg 65%
    13:00 +35°C° 0 mm 2 mps 750 mmHg 60%
    14:00 +35°C° 0 mm 3 mps 750 mmHg 63%
    15:00 +34°C° 0 mm 4 mps 749 mmHg 65%
    16:00 +34°C° 0 mm 5 mps 749 mmHg 68%
    17:00 +32°C° 0.1 mm 4 mps 749 mmHg 74%
    18:00 +30°C° 0.1 mm 4 mps 750 mmHg 81%
    19:00 +29°C° 0.1 mm 4 mps 751 mmHg 88%
    20:00 +28°C° 0.1 mm 4 mps 751 mmHg 89%
    21:00 +28°C° 0.1 mm 3 mps 751 mmHg 90%
    22:00 +28°C° 0.1 mm 3 mps 752 mmHg 91%
    23:00 +28°C° 0 mm 3 mps 752 mmHg 91%

    23 April, Tuesday

    Time Temperature Precipitation Wind Pressure Humidity
    00:00 +28°C° 0 mm 3 mps 751 mmHg 92%
    01:00 +27°C° 0 mm 2 mps 751 mmHg 92%
    02:00 +27°C° 0 mm 3 mps 751 mmHg 93%
    03:00 +27°C° 0 mm 3 mps 751 mmHg 94%
    04:00 +27°C° 0 mm 3 mps 751 mmHg 94%
    05:00 +27°C° 0 mm 3 mps 751 mmHg 93%
    06:00 +27°C° 0 mm 2 mps 752 mmHg 92%
    07:00 +27°C° 0 mm 2 mps 752 mmHg 91%
    08:00 +29°C° 0 mm 2 mps 752 mmHg 85%
    09:00 +30°C° 0 mm 2 mps 753 mmHg 78%
    10:00 +31°C° 0 mm 2 mps 753 mmHg 71%
    11:00 +34°C° 0 mm 2 mps 752 mmHg 66%
    12:00 +35°C° 0 mm 3 mps 751 mmHg 62%
    13:00 +36°C° 0 mm 3 mps 750 mmHg 57%
    14:00 +36°C° 0 mm 4 mps 750 mmHg 60%
    15:00 +35°C° 0 mm 5 mps 750 mmHg 63%
    16:00 +35°C° 0 mm 5 mps 749 mmHg 66%
    17:00 +33°C° 0 mm 5 mps 750 mmHg 72%
    18:00 +32°C° 0 mm 5 mps 750 mmHg 77%
    19:00 +29°C° 0 mm 4 mps 751 mmHg 82%
    20:00 +29°C° 0.2 mm 4 mps 751 mmHg 83%
    21:00 +28°C° 0.2 mm 4 mps 751 mmHg 84%
    22:00 +28°C° 0.2 mm 4 mps 752 mmHg 85%
    23:00 +28°C° 0.1 mm 4 mps 752 mmHg 85%
    Show more